Time,TemperatureF,DewpointF,PressureIn,WindDirection,WindDirectionDegrees,WindSpeedMPH,WindSpeedGustMPH,Humidity,HourlyPrecipIn,Conditions,Clouds,dailyrainin,SoftwareType,DateUTC
2013-01-09 00:00:00,31.8,29.4,30.46,SE,142,0.0,2.0,91,0.00,,,0.00,HR-IXPWINDi_r2_v1.2.,2013-01-09 05:00:00,
2013-01-09 00:05:00,31.9,29.5,30.46,SE,142,0.0,1.0,91,0.00,,,0.00,HR-IXPWINDi_r2_v1.2.,2013-01-09 05:05:00,
2013-01-09 00:10:00,31.8,29.4,30.46,SE,142,0.0,1.0,91,0.00,,,0.00,HR-IXPWINDi_r2_v1.2.,2013-01-09 05:10:00,
2013-01-09 00:15:00,31.9,29.5,30.45,SE,142,0.0,1.0,91,0.00,,,0.00,HR-IXPWINDi_r2_v1.2.,2013-01-09 05:15:00,
2013-01-09 00:21:00,31.9,29.5,30.45,SE,142,0.0,1.0,91,0.00,,,0.00,HR-IXPWINDi_r2_v1.2.,2013-01-09 05:21:00,
2013-01-09 00:26:00,31.9,29.5,30.45,SE,142,0.0,1.0,91,0.00,,,0.00,HR-IXPWINDi_r2_v1.2.,2013-01-09 05:26:00,
2013-01-09 00:32:00,31.8,29.2,30.45,SE,142,0.0,0.0,90,0.00,,,0.00,HR-IXPWINDi_r2_v1.2.,2013-01-09 05:32:00,
2013-01-09 00:37:00,31.9,29.5,30.45,SE,142,0.0,0.0,91,0.00,,,0.00,HR-IXPWINDi_r2_v1.2.,2013-01-09 05:37:00,
2013-01-09 00:42:00,32.1,29.7,30.45,SE,142,0.0,1.0,91,0.00,,,0.00,HR-IXPWINDi_r2_v1.2.,2013-01-09 05:42:00,
2013-01-09 00:47:00,32.3,29.9,30.45,SE,142,0.0,1.0,91,0.00,,,0.00,HR-IXPWINDi_r2_v1.2.,2013-01-09 05:47:00,
2013-01-09 00:53:00,32.5,30.1,30.44,SE,142,0.0,1.0,91,0.00,,,0.00,HR-IXPWINDi_r2_v1.2.,2013-01-09 05:53:00,
2013-01-09 00:58:00,32.8,30.4,30.44,SE,142,0.0,2.0,91,0.00,,,0.00,HR-IXPWINDi_r2_v1.2.,2013-01-09 05:58:00,
2013-01-09 01:03:00,33.0,30.4,30.44,SE,130,1.0,2.0,90,0.00,,,0.00,HR-IXPWINDi_r2_v1.2.,2013-01-09 06:03:00,
2013-01-09 01:08:00,33.0,30.4,30.44,SE,130,0.0,2.0,90,0.00,,,0.00,HR-IXPWINDi_r2_v1.2.,2013-01-09 06:08:00,
2013-01-09 01:13:00,33.0,30.4,30.43,SE,130,0.0,1.0,90,0.00,,,0.00,HR-IXPWINDi_r2_v1.2.,2013-01-09 06:13:00,
2013-01-09 01:18:00,32.9,30.0,30.43,SE,130,0.0,1.0,89,0.00,,,0.00,HR-IXPWINDi_r2_v1.2.,2013-01-09 06:18:00,
2013-01-09 01:24:00,32.8,29.9,30.44,SE,130,0.0,1.0,89,0.00,,,0.00,HR-IXPWINDi_r2_v1.2.,2013-01-09 06:24:00,
2013-01-09 01:29:00,32.6,29.7,30.44,SE,130,0.0,1.0,89,0.00,,,0.00,HR-IXPWINDi_r2_v1.2.,2013-01-09 06:29:00,
2013-01-09 01:34:00,32.5,29.6,30.44,SE,130,0.0,1.0,89,0.00,,,0.00,HR-IXPWINDi_r2_v1.2.,2013-01-09 06:34:00,
2013-01-09 01:39:00,32.4,29.5,30.44,SE,130,0.0,0.0,89,0.00,,,0.00,HR-IXPWINDi_r2_v1.2.,2013-01-09 06:39:00,
2013-01-09 01:44:00,32.3,29.4,30.45,SE,130,0.0,0.0,89,0.00,,,0.00,HR-IXPWINDi_r2_v1.2.,2013-01-09 06:44:00,
2013-01-09 01:50:00,32.3,29.4,30.45,SE,130,0.0,0.0,89,0.00,,,0.00,HR-IXPWINDi_r2_v1.2.,2013-01-09 06:50:00,
2013-01-09 01:55:00,32.2,29.3,30.45,SE,130,0.0,1.0,89,0.00,,,0.00,HR-IXPWINDi_r2_v1.2.,2013-01-09 06:55:00,
2013-01-09 02:00:00,32.2,29.3,30.45,SE,130,0.0,2.0,89,0.00,,,0.00,HR-IXPWINDi_r2_v1.2.,2013-01-09 07:00:00,
2013-01-09 02:05:00,32.0,29.1,30.45,SE,130,0.0,2.0,89,0.00,,,0.00,HR-IXPWINDi_r2_v1.2.,2013-01-09 07:05:00,
2013-01-09 02:10:00,31.8,28.9,30.45,ESE,116,0.0,2.0,89,0.00,,,0.00,HR-IXPWINDi_r2_v1.2.,2013-01-09 07:10:00,
2013-01-09 02:15:00,31.7,28.8,30.45,ESE,116,0.0,2.0,89,0.00,,,0.00,HR-IXPWINDi_r2_v1.2.,2013-01-09 07:15:00,
2013-01-09 02:20:00,31.7,29.1,30.45,ESE,116,0.0,0.0,90,0.00,,,0.00,HR-IXPWINDi_r2_v1.2.,2013-01-09 07:20:00,
2013-01-09 02:26:00,31.7,29.1,30.45,ESE,116,0.0,0.0,90,0.00,,,0.00,HR-IXPWINDi_r2_v1.2.,2013-01-09 07:26:00,
2013-01-09 02:31:00,31.7,29.1,30.45,ESE,116,0.0,0.0,90,0.00,,,0.00,HR-IXPWINDi_r2_v1.2.,2013-01-09 07:31:00,
2013-01-09 02:36:00,31.6,29.0,30.45,ESE,116,0.0,0.0,90,0.00,,,0.00,HR-IXPWINDi_r2_v1.2.,2013-01-09 07:36:00,
2013-01-09 02:41:00,31.7,29.4,30.45,ESE,116,0.0,0.0,91,0.00,,,0.00,HR-IXPWINDi_r2_v1.2.,2013-01-09 07:41:00,
2013-01-09 02:47:00,31.5,28.9,30.45,ESE,116,0.0,0.0,90,0.00,,,0.00,HR-IXPWINDi_r2_v1.2.,2013-01-09 07:47:00,
2013-01-09 02:52:00,31.5,28.9,30.44,SSE,165,0.0,3.0,90,0.00,,,0.00,HR-IXPWINDi_r2_v1.2.,2013-01-09 07:52:00,
2013-01-09 02:57:00,31.6,29.3,30.44,SSE,165,0.0,3.0,91,0.00,,,0.00,HR-IXPWINDi_r2_v1.2.,2013-01-09 07:57:00,
2013-01-09 03:03:00,31.5,28.9,30.44,SSE,165,0.0,1.0,90,0.00,,,0.00,HR-IXPWINDi_r2_v1.2.,2013-01-09 08:03:00,
2013-01-09 03:08:00,31.5,28.9,30.44,ESE,106,0.0,3.0,90,0.00,,,0.00,HR-IXPWINDi_r2_v1.2.,2013-01-09 08:08:00,
2013-01-09 03:13:00,31.5,28.9,30.44,SSE,163,0.0,3.0,90,0.00,,,0.00,HR-IXPWINDi_r2_v1.2.,2013-01-09 08:13:00,
2013-01-09 03:18:00,31.4,28.8,30.45,SSE,163,0.0,2.0,90,0.00,,,0.00,HR-IXPWINDi_r2_v1.2.,2013-01-09 08:18:00,
2013-01-09 03:23:00,31.4,29.1,30.45,SSE,149,0.0,2.0,91,0.00,,,0.00,HR-IXPWINDi_r2_v1.2.,2013-01-09 08:23:00,
2013-01-09 03:29:00,31.6,29.0,30.44,SSE,149,0.0,2.0,90,0.00,,,0.00,HR-IXPWINDi_r2_v1.2.,2013-01-09 08:29:00,
2013-01-09 03:34:00,31.4,28.8,30.44,SSE,149,0.0,0.0,90,0.00,,,0.00,HR-IXPWINDi_r2_v1.2.,2013-01-09 08:34:00,
2013-01-09 03:39:00,31.1,28.5,30.44,SSE,149,0.0,0.0,90,0.00,,,0.00,HR-IXPWINDi_r2_v1.2.,2013-01-09 08:39:00,
2013-01-09 03:44:00,31.0,28.4,30.45,SSE,149,0.0,0.0,90,0.00,,,0.00,HR-IXPWINDi_r2_v1.2.,2013-01-09 08:44:00,
2013-01-09 03:49:00,31.0,28.7,30.45,SSE,149,0.0,1.0,91,0.00,,,0.00,HR-IXPWINDi_r2_v1.2.,2013-01-09 08:49:00,
2013-01-09 03:54:00,31.1,28.8,30.45,SSE,149,1.0,1.0,91,0.00,,,0.00,HR-IXPWINDi_r2_v1.2.,2013-01-09 08:54:00,
2013-01-09 04:00:00,31.2,28.9,30.45,ESE,121,0.0,2.0,91,0.00,,,0.00,HR-IXPWINDi_r2_v1.2.,2013-01-09 09:00:00,
2013-01-09 04:05:00,31.3,29.0,30.45,ESE,122,0.0,2.0,91,0.00,,,0.00,HR-IXPWINDi_r2_v1.2.,2013-01-09 09:05:00,
2013-01-09 04:10:00,31.4,29.1,30.44,SE,146,1.0,3.0,91,0.00,,,0.00,HR-IXPWINDi_r2_v1.2.,2013-01-09 09:10:00,
2013-01-09 04:15:00,31.4,29.1,30.44,SSE,158,0.0,3.0,91,0.00,,,0.00,HR-IXPWINDi_r2_v1.2.,2013-01-09 09:15:00,
2013-01-09 04:20:00,31.2,28.6,30.44,SSE,158,0.0,2.0,90,0.00,,,0.00,HR-IXPWINDi_r2_v1.2.,2013-01-09 09:20:00,
2013-01-09 04:25:00,31.3,29.0,30.44,SSE,158,1.0,1.0,91,0.00,,,0.00,HR-IXPWINDi_r2_v1.2.,2013-01-09 09:25:00,
2013-01-09 04:30:00,31.2,28.6,30.44,SSE,158,0.0,1.0,90,0.00,,,0.00,HR-IXPWINDi_r2_v1.2.,2013-01-09 09:30:00,
2013-01-09 04:35:00,31.1,28.8,30.43,SSE,158,0.0,1.0,91,0.00,,,0.00,HR-IXPWINDi_r2_v1.2.,2013-01-09 09:35:00,
2013-01-09 04:41:00,31.1,28.8,30.43,SSE,159,0.0,2.0,91,0.00,,,0.00,HR-IXPWINDi_r2_v1.2.,2013-01-09 09:41:00,
2013-01-09 04:46:00,31.1,28.8,30.44,SSE,159,0.0,2.0,91,0.00,,,0.00,HR-IXPWINDi_r2_v1.2.,2013-01-09 09:46:00,
2013-01-09 04:51:00,31.3,29.2,30.43,SSE,156,0.0,3.0,92,0.00,,,0.00,HR-IXPWINDi_r2_v1.2.,2013-01-09 09:51:00,
2013-01-09 04:56:00,31.5,29.2,30.43,SSE,156,0.0,3.0,91,0.00,,,0.00,HR-IXPWINDi_r2_v1.2.,2013-01-09 09:56:00,
2013-01-09 05:01:00,31.5,29.2,30.43,SSE,156,1.0,2.0,91,0.00,,,0.00,HR-IXPWINDi_r2_v1.2.,2013-01-09 10:01:00,
2013-01-09 05:07:00,31.5,29.2,30.43,SSE,156,0.0,1.0,91,0.00,,,0.00,HR-IXPWINDi_r2_v1.2.,2013-01-09 10:07:00,
2013-01-09 05:12:00,31.5,29.2,30.42,SSE,156,0.0,1.0,91,0.00,,,0.00,HR-IXPWINDi_r2_v1.2.,2013-01-09 10:12:00,
2013-01-09 05:17:00,31.3,29.0,30.43,SSE,156,0.0,2.0,91,0.00,,,0.00,HR-IXPWINDi_r2_v1.2.,2013-01-09 10:17:00,
2013-01-09 05:22:00,31.2,28.9,30.43,SSE,156,0.0,2.0,91,0.00,,,0.00,HR-IXPWINDi_r2_v1.2.,2013-01-09 10:22:00,
2013-01-09 05:28:00,31.1,28.8,30.43,SSE,156,0.0,0.0,91,0.00,,,0.00,HR-IXPWINDi_r2_v1.2.,2013-01-09 10:28:00,
2013-01-09 05:33:00,31.1,28.8,30.43,SSE,156,0.0,1.0,91,0.00,,,0.00,HR-IXPWINDi_r2_v1.2.,2013-01-09 10:33:00,
2013-01-09 05:38:00,31.2,28.9,30.43,SSE,156,0.0,1.0,91,0.00,,,0.00,HR-IXPWINDi_r2_v1.2.,2013-01-09 10:38:00,
2013-01-09 05:43:00,31.4,29.3,30.43,SSE,156,0.0,0.0,92,0.00,,,0.00,HR-IXPWINDi_r2_v1.2.,2013-01-09 10:43:00,
2013-01-09 05:48:00,31.5,29.4,30.43,SSE,156,1.0,2.0,92,0.00,,,0.00,HR-IXPWINDi_r2_v1.2.,2013-01-09 10:48:00,
2013-01-09 05:53:00,31.6,29.5,30.43,SSE,156,0.0,2.0,92,0.00,,,0.00,HR-IXPWINDi_r2_v1.2.,2013-01-09 10:53:00,
2013-01-09 05:58:00,31.4,29.1,30.44,SSE,159,0.0,2.0,91,0.00,,,0.00,HR-IXPWINDi_r2_v1.2.,2013-01-09 10:58:00,
2013-01-09 06:04:00,31.3,29.0,30.43,SSE,159,0.0,2.0,91,0.00,,,0.00,HR-IXPWINDi_r2_v1.2.,2013-01-09 11:04:00,
2013-01-09 06:09:00,31.5,29.4,30.44,SSE,160,0.0,2.0,92,0.00,,,0.00,HR-IXPWINDi_r2_v1.2.,2013-01-09 11:09:00,
2013-01-09 06:14:00,31.5,29.2,30.43,SSE,160,0.0,2.0,91,0.00,,,0.00,HR-IXPWINDi_r2_v1.2.,2013-01-09 11:14:00,
2013-01-09 06:19:00,31.3,29.0,30.44,SSE,160,0.0,3.0,91,0.00,,,0.00,HR-IXPWINDi_r2_v1.2.,2013-01-09 11:19:00,
2013-01-09 06:24:00,31.1,28.8,30.43,SSE,160,0.0,3.0,91,0.00,,,0.00,HR-IXPWINDi_r2_v1.2.,2013-01-09 11:24:00,
2013-01-09 06:29:00,31.1,29.0,30.44,SSE,160,0.0,1.0,92,0.00,,,0.00,HR-IXPWINDi_r2_v1.2.,2013-01-09 11:29:00,
2013-01-09 06:34:00,31.0,28.7,30.44,SSE,160,0.0,1.0,91,0.00,,,0.00,HR-IXPWINDi_r2_v1.2.,2013-01-09 11:34:00,
2013-01-09 06:39:00,31.0,28.9,30.44,SSE,160,0.0,1.0,92,0.00,,,0.00,HR-IXPWINDi_r2_v1.2.,2013-01-09 11:39:00,
2013-01-09 06:45:00,31.0,28.9,30.44,SSE,160,0.0,1.0,92,0.00,,,0.00,HR-IXPWINDi_r2_v1.2.,2013-01-09 11:45:00,
2013-01-09 06:50:00,31.1,29.0,30.44,SSE,157,0.0,2.0,92,0.00,,,0.00,HR-IXPWINDi_r2_v1.2.,2013-01-09 11:50:00,
2013-01-09 06:55:00,31.1,29.0,30.44,SSE,157,0.0,2.0,92,0.00,,,0.00,HR-IXPWINDi_r2_v1.2.,2013-01-09 11:55:00,
2013-01-09 07:01:00,31.1,29.0,30.44,SSE,157,0.0,0.0,92,0.00,,,0.00,HR-IXPWINDi_r2_v1.2.,2013-01-09 12:01:00,
2013-01-09 07:06:00,31.1,29.0,30.43,SSE,157,1.0,2.0,92,0.00,,,0.00,HR-IXPWINDi_r2_v1.2.,2013-01-09 12:06:00,
2013-01-09 07:11:00,31.2,29.1,30.43,SE,134,0.0,3.0,92,0.00,,,0.00,HR-IXPWINDi_r2_v1.2.,2013-01-09 12:11:00,
2013-01-09 07:16:00,31.4,29.3,30.44,SE,134,0.0,3.0,92,0.00,,,0.00,HR-IXPWINDi_r2_v1.2.,2013-01-09 12:16:00,
2013-01-09 07:22:00,31.6,29.5,30.44,SSE,149,0.0,2.0,92,0.00,,,0.00,HR-IXPWINDi_r2_v1.2.,2013-01-09 12:22:00,
2013-01-09 07:27:00,32.0,29.9,30.44,ESE,115,1.0,3.0,92,0.00,,,0.00,HR-IXPWINDi_r2_v1.2.,2013-01-09 12:27:00,
2013-01-09 07:32:00,32.3,29.9,30.44,ESE,114,0.0,3.0,91,0.00,,,0.00,HR-IXPWINDi_r2_v1.2.,2013-01-09 12:32:00,
2013-01-09 07:37:00,32.5,30.4,30.44,ESE,115,0.0,3.0,92,0.00,,,0.00,HR-IXPWINDi_r2_v1.2.,2013-01-09 12:37:00,
2013-01-09 07:42:00,32.8,30.7,30.44,ESE,115,0.0,3.0,92,0.00,,,0.00,HR-IXPWINDi_r2_v1.2.,2013-01-09 12:42:00,
2013-01-09 07:47:00,33.0,30.9,30.44,ESE,115,1.0,2.0,92,0.00,,,0.00,HR-IXPWINDi_r2_v1.2.,2013-01-09 12:47:00,
2013-01-09 07:53:00,33.4,31.3,30.44,East,90,2.0,3.0,92,0.00,,,0.00,HR-IXPWINDi_r2_v1.2.,2013-01-09 12:53:00,
2013-01-09 07:58:00,33.7,31.6,30.45,ESE,115,0.0,3.0,92,0.00,,,0.00,HR-IXPWINDi_r2_v1.2.,2013-01-09 12:58:00,
2013-01-09 08:03:00,33.8,31.7,30.45,ESE,115,0.0,3.0,92,0.00,,,0.00,HR-IXPWINDi_r2_v1.2.,2013-01-09 13:03:00,
2013-01-09 08:08:00,34.1,32.0,30.45,ESE,115,0.0,2.0,92,0.00,,,0.00,HR-IXPWINDi_r2_v1.2.,2013-01-09 13:08:00,
2013-01-09 08:13:00,34.2,31.8,30.45,ESE,115,0.0,1.0,91,0.00,,,0.00,HR-IXPWINDi_r2_v1.2.,2013-01-09 13:13:00,
2013-01-09 08:18:00,34.2,31.5,30.45,ESE,121,1.0,2.0,90,0.00,,,0.00,HR-IXPWINDi_r2_v1.2.,2013-01-09 13:18:00,
2013-01-09 08:23:00,34.4,32.0,30.45,ESE,117,0.0,3.0,91,0.00,,,0.00,HR-IXPWINDi_r2_v1.2.,2013-01-09 13:23:00,
2013-01-09 08:29:00,34.9,32.5,30.45,SSE,163,0.0,3.0,91,0.00,,,0.00,HR-IXPWINDi_r2_v1.2.,2013-01-09 13:29:00,
2013-01-09 08:34:00,35.4,33.0,30.45,SSE,161,2.0,3.0,91,0.00,,,0.00,HR-IXPWINDi_r2_v1.2.,2013-01-09 13:34:00,
2013-01-09 08:39:00,36.1,33.4,30.46,ESE,117,0.0,4.0,90,0.00,,,0.00,HR-IXPWINDi_r2_v1.2.,2013-01-09 13:39:00,
2013-01-09 08:44:00,36.9,33.9,30.46,ESE,103,0.0,4.0,89,0.00,,,0.00,HR-IXPWINDi_r2_v1.2.,2013-01-09 13:44:00,
2013-01-09 08:49:00,37.7,34.4,30.46,East,84,2.0,5.0,88,0.00,,,0.00,HR-IXPWINDi_r2_v1.2.,2013-01-09 13:49:00,
2013-01-09 08:54:00,38.5,34.6,30.46,ESE,108,2.0,5.0,86,0.00,,,0.00,HR-IXPWINDi_r2_v1.2.,2013-01-09 13:54:00,
2013-01-09 09:00:00,39.0,35.1,30.46,ESE,109,0.0,3.0,86,0.00,,,0.00,HR-IXPWINDi_r2_v1.2.,2013-01-09 14:00:00,
2013-01-09 09:05:00,39.5,35.3,30.46,ESE,105,0.0,3.0,85,0.00,,,0.00,HR-IXPWINDi_r2_v1.2.,2013-01-09 14:05:00,
2013-01-09 09:10:00,40.0,35.5,30.46,ESE,117,0.0,4.0,84,0.00,,,0.00,HR-IXPWINDi_r2_v1.2.,2013-01-09 14:10:00,
2013-01-09 09:15:00,40.3,35.5,30.47,ESE,117,0.0,4.0,83,0.00,,,0.00,HR-IXPWINDi_r2_v1.2.,2013-01-09 14:15:00,
2013-01-09 09:21:00,40.6,35.8,30.47,ESE,117,0.0,1.0,83,0.00,,,0.00,HR-IXPWINDi_r2_v1.2.,2013-01-09 14:21:00,
2013-01-09 09:26:00,41.0,36.2,30.47,ESE,117,0.0,2.0,83,0.00,,,0.00,HR-IXPWINDi_r2_v1.2.,2013-01-09 14:26:00,
2013-01-09 09:31:00,41.5,36.7,30.47,ESE,117,0.0,2.0,83,0.00,,,0.00,HR-IXPWINDi_r2_v1.2.,2013-01-09 14:31:00,
2013-01-09 09:36:00,42.0,37.2,30.47,ESE,117,0.0,2.0,83,0.00,,,0.00,HR-IXPWINDi_r2_v1.2.,2013-01-09 14:36:00,
2013-01-09 09:41:00,42.8,38.0,30.47,ESE,117,1.0,2.0,83,0.00,,,0.00,HR-IXPWINDi_r2_v1.2.,2013-01-09 14:41:00,
2013-01-09 09:46:00,43.9,39.0,30.47,ESE,117,0.0,2.0,83,0.00,,,0.00,HR-IXPWINDi_r2_v1.2.,2013-01-09 14:46:00,
2013-01-09 09:51:00,45.0,39.8,30.47,ESE,117,1.0,2.0,82,0.00,,,0.00,HR-IXPWINDi_r2_v1.2.,2013-01-09 14:51:00,
2013-01-09 09:56:00,46.0,40.8,30.47,ESE,117,0.0,2.0,82,0.00,,,0.00,HR-IXPWINDi_r2_v1.2.,2013-01-09 14:56:00,
2013-01-09 10:02:00,46.7,41.1,30.47,ESE,117,0.0,1.0,81,0.00,,,0.00,HR-IXPWINDi_r2_v1.2.,2013-01-09 15:02:00,
2013-01-09 10:07:00,47.2,41.3,30.47,ESE,117,0.0,0.0,80,0.00,,,0.00,HR-IXPWINDi_r2_v1.2.,2013-01-09 15:07:00,
2013-01-09 10:12:00,47.7,41.1,30.46,ESE,117,0.0,0.0,78,0.00,,,0.00,HR-IXPWINDi_r2_v1.2.,2013-01-09 15:12:00,
2013-01-09 10:17:00,48.3,41.4,30.46,ESE,117,0.0,1.0,77,0.00,,,0.00,HR-IXPWINDi_r2_v1.2.,2013-01-09 15:17:00,
2013-01-09 10:22:00,48.8,41.2,30.46,ESE,117,1.0,2.0,75,0.00,,,0.00,HR-IXPWINDi_r2_v1.2.,2013-01-09 15:22:00,
2013-01-09 10:27:00,49.1,41.1,30.46,ESE,117,0.0,2.0,74,0.00,,,0.00,HR-IXPWINDi_r2_v1.2.,2013-01-09 15:27:00,
2013-01-09 10:33:00,49.4,41.4,30.46,ESE,115,3.0,3.0,74,0.00,,,0.00,HR-IXPWINDi_r2_v1.2.,2013-01-09 15:33:00,
2013-01-09 10:38:00,49.6,41.6,30.46,ESE,120,3.0,4.0,74,0.00,,,0.00,HR-IXPWINDi_r2_v1.2.,2013-01-09 15:38:00,
2013-01-09 10:43:00,49.6,42.0,30.46,ESE,106,1.0,4.0,75,0.00,,,0.00,HR-IXPWINDi_r2_v1.2.,2013-01-09 15:43:00,
2013-01-09 10:48:00,49.6,42.0,30.46,ESE,106,0.0,3.0,75,0.00,,,0.00,HR-IXPWINDi_r2_v1.2.,2013-01-09 15:48:00,
2013-01-09 10:53:00,49.7,42.0,30.45,ESE,106,1.0,2.0,75,0.00,,,0.00,HR-IXPWINDi_r2_v1.2.,2013-01-09 15:53:00,
2013-01-09 10:58:00,49.9,42.2,30.45,SE,124,0.0,3.0,75,0.00,,,0.00,HR-IXPWINDi_r2_v1.2.,2013-01-09 15:58:00,
2013-01-09 11:03:00,50.2,42.5,30.45,SE,126,0.0,3.0,75,0.00,,,0.00,HR-IXPWINDi_r2_v1.2.,2013-01-09 16:03:00,
2013-01-09 11:09:00,50.4,42.7,30.44,ESE,119,0.0,3.0,75,0.00,,,0.00,HR-IXPWINDi_r2_v1.2.,2013-01-09 16:09:00,
2013-01-09 11:14:00,50.8,42.8,30.44,ESE,109,0.0,3.0,74,0.00,,,0.00,HR-IXPWINDi_r2_v1.2.,2013-01-09 16:14:00,
2013-01-09 11:19:00,51.1,43.1,30.44,ESE,109,0.0,3.0,74,0.00,,,0.00,HR-IXPWINDi_r2_v1.2.,2013-01-09 16:19:00,
2013-01-09 11:24:00,51.4,43.0,30.44,SE,137,0.0,2.0,73,0.00,,,0.00,HR-IXPWINDi_r2_v1.2.,2013-01-09 16:24:00,
2013-01-09 11:29:00,52.1,44.4,30.43,SSW,205,0.0,3.0,75,0.00,,,0.00,HR-IXPWINDi_r2_v1.2.,2013-01-09 16:29:00,
2013-01-09 11:35:00,52.5,44.0,30.43,SE,131,0.0,4.0,73,0.00,,,0.00,HR-IXPWINDi_r2_v1.2.,2013-01-09 16:35:00,
2013-01-09 11:40:00,52.7,44.2,30.42,SE,138,1.0,4.0,73,0.00,,,0.00,HR-IXPWINDi_r2_v1.2.,2013-01-09 16:40:00,
2013-01-09 11:45:00,52.7,44.2,30.42,ESE,107,0.0,4.0,73,0.00,,,0.00,HR-IXPWINDi_r2_v1.2.,2013-01-09 16:45:00,
2013-01-09 11:50:00,52.7,44.6,30.42,SE,130,0.0,4.0,74,0.00,,,0.00,HR-IXPWINDi_r2_v1.2.,2013-01-09 16:50:00,
2013-01-09 11:55:00,52.7,44.2,30.42,ESE,113,0.0,2.0,73,0.00,,,0.00,HR-IXPWINDi_r2_v1.2.,2013-01-09 16:55:00,
2013-01-09 12:00:00,52.7,44.6,30.42,SE,130,0.0,3.0,74,0.00,,,0.00,HR-IXPWINDi_r2_v1.2.,2013-01-09 17:00:00,
2013-01-09 12:05:00,52.9,44.8,30.41,ESE,115,1.0,3.0,74,0.00,,,0.00,HR-IXPWINDi_r2_v1.2.,2013-01-09 17:05:00,
2013-01-09 12:10:00,53.2,45.1,30.41,East,91,2.0,3.0,74,0.00,,,0.00,HR-IXPWINDi_r2_v1.2.,2013-01-09 17:10:00,
2013-01-09 12:16:00,53.7,45.6,30.41,East,97,0.0,3.0,74,0.00,,,0.00,HR-IXPWINDi_r2_v1.2.,2013-01-09 17:16:00,
2013-01-09 12:21:00,54.0,45.5,30.40,East,97,0.0,3.0,73,0.00,,,0.00,HR-IXPWINDi_r2_v1.2.,2013-01-09 17:21:00,
2013-01-09 12:26:00,54.5,45.6,30.40,ENE,74,0.0,5.0,72,0.00,,,0.00,HR-IXPWINDi_r2_v1.2.,2013-01-09 17:26:00,
2013-01-09 12:31:00,55.2,45.9,30.40,East,80,0.0,5.0,71,0.00,,,0.00,HR-IXPWINDi_r2_v1.2.,2013-01-09 17:31:00,
2013-01-09 12:36:00,56.0,45.9,30.40,ENE,73,1.0,2.0,69,0.00,,,0.00,HR-IXPWINDi_r2_v1.2.,2013-01-09 17:36:00,
2013-01-09 12:41:00,56.6,46.5,30.40,East,87,0.0,2.0,69,0.00,,,0.00,HR-IXPWINDi_r2_v1.2.,2013-01-09 17:41:00,
2013-01-09 12:47:00,56.8,46.7,30.39,ESE,109,1.0,4.0,69,0.00,,,0.00,HR-IXPWINDi_r2_v1.2.,2013-01-09 17:47:00,
2013-01-09 12:52:00,56.7,46.2,30.40,ESE,117,0.0,4.0,68,0.00,,,0.00,HR-IXPWINDi_r2_v1.2.,2013-01-09 17:52:00,
2013-01-09 12:57:00,56.9,46.8,30.40,South,172,4.0,4.0,69,0.00,,,0.00,HR-IXPWINDi_r2_v1.2.,2013-01-09 17:57:00,
2013-01-09 13:02:00,57.7,46.4,30.40,NNW,348,3.0,5.0,66,0.00,,,0.00,HR-IXPWINDi_r2_v1.2.,2013-01-09 18:02:00,
2013-01-09 13:07:00,59.1,46.5,30.39,NNW,336,3.0,6.0,63,0.00,,,0.00,HR-IXPWINDi_r2_v1.2.,2013-01-09 18:07:00,
2013-01-09 13:12:00,59.7,46.6,30.40,NW,311,2.0,7.0,62,0.00,,,0.00,HR-IXPWINDi_r2_v1.2.,2013-01-09 18:12:00,
2013-01-09 13:18:00,59.8,46.3,30.40,NW,323,0.0,7.0,61,0.00,,,0.00,HR-IXPWINDi_r2_v1.2.,2013-01-09 18:18:00,
2013-01-09 13:23:00,59.6,45.6,30.40,NW,310,0.0,4.0,60,0.00,,,0.00,HR-IXPWINDi_r2_v1.2.,2013-01-09 18:23:00,
2013-01-09 13:28:00,59.6,46.1,30.40,NNW,329,0.0,5.0,61,0.00,,,0.00,HR-IXPWINDi_r2_v1.2.,2013-01-09 18:28:00,
2013-01-09 13:33:00,59.6,46.1,30.40,SE,140,0.0,5.0,61,0.00,,,0.00,HR-IXPWINDi_r2_v1.2.,2013-01-09 18:33:00,
2013-01-09 13:38:00,59.8,46.7,30.40,WSW,240,0.0,4.0,62,0.00,,,0.00,HR-IXPWINDi_r2_v1.2.,2013-01-09 18:38:00,
2013-01-09 13:41:00,59.8,46.3,30.40,NE,50,2.0,5.0,61,0.00,,,0.00,HR-IXPWINDi_r2_v1.2.,2013-01-09 18:41:00,
2013-01-09 13:44:00,59.8,46.3,30.40,NW,319,5.0,5.0,61,0.00,,,0.00,HR-IXPWINDi_r2_v1.2.,2013-01-09 18:44:00,
2013-01-09 13:48:00,59.7,45.7,30.40,NW,307,0.0,7.0,60,0.00,,,0.00,HR-IXPWINDi_r2_v1.2.,2013-01-09 18:48:00,
2013-01-09 13:54:00,59.8,45.8,30.40,North,349,1.0,8.0,60,0.00,,,0.00,HR-IXPWINDi_r2_v1.2.,2013-01-09 18:54:00,
2013-01-09 13:59:00,59.8,45.8,30.40,NNW,330,2.0,8.0,60,0.00,,,0.00,HR-IXPWINDi_r2_v1.2.,2013-01-09 18:59:00,
2013-01-09 14:04:00,59.8,45.8,30.40,NW,323,1.0,6.0,60,0.00,,,0.00,HR-IXPWINDi_r2_v1.2.,2013-01-09 19:04:00,
2013-01-09 14:09:00,59.8,45.8,30.40,NW,311,0.0,6.0,60,0.00,,,0.00,HR-IXPWINDi_r2_v1.2.,2013-01-09 19:09:00,
2013-01-09 14:14:00,59.8,46.3,30.41,NW,320,0.0,6.0,61,0.00,,,0.00,HR-IXPWINDi_r2_v1.2.,2013-01-09 19:14:00,
2013-01-09 14:20:00,59.7,46.2,30.41,NW,317,0.0,3.0,61,0.00,,,0.00,HR-IXPWINDi_r2_v1.2.,2013-01-09 19:20:00,
2013-01-09 14:25:00,59.6,46.1,30.41,SE,139,0.0,3.0,61,0.00,,,0.00,HR-IXPWINDi_r2_v1.2.,2013-01-09 19:25:00,
2013-01-09 14:31:00,59.6,46.5,30.41,NW,304,0.0,3.0,62,0.00,,,0.00,HR-IXPWINDi_r2_v1.2.,2013-01-09 19:31:00,
2013-01-09 14:37:00,59.6,46.1,30.42,NW,310,1.0,4.0,61,0.00,,,0.00,HR-IXPWINDi_r2_v1.2.,2013-01-09 19:37:00,
2013-01-09 14:42:00,59.6,46.1,30.42,NW,310,0.0,4.0,61,0.00,,,0.00,HR-IXPWINDi_r2_v1.2.,2013-01-09 19:42:00,
2013-01-09 14:47:00,59.5,46.4,30.42,NW,308,0.0,3.0,62,0.00,,,0.00,HR-IXPWINDi_r2_v1.2.,2013-01-09 19:47:00,
2013-01-09 14:53:00,59.5,46.4,30.42,South,176,1.0,3.0,62,0.00,,,0.00,HR-IXPWINDi_r2_v1.2.,2013-01-09 19:53:00,
2013-01-09 14:58:00,59.5,46.4,30.42,SSW,208,1.0,8.0,62,0.00,,,0.00,HR-IXPWINDi_r2_v1.2.,2013-01-09 19:58:00,
2013-01-09 15:03:00,59.5,46.8,30.42,WSW,248,0.0,8.0,63,0.00,,,0.00,HR-IXPWINDi_r2_v1.2.,2013-01-09 20:03:00,
2013-01-09 15:09:00,59.5,47.3,30.42,NW,306,4.0,4.0,64,0.00,,,0.00,HR-IXPWINDi_r2_v1.2.,2013-01-09 20:09:00,
2013-01-09 15:14:00,59.6,48.2,30.42,SW,223,0.0,4.0,66,0.00,,,0.00,HR-IXPWINDi_r2_v1.2.,2013-01-09 20:14:00,
2013-01-09 15:19:00,59.6,48.2,30.42,South,182,1.0,5.0,66,0.00,,,0.00,HR-IXPWINDi_r2_v1.2.,2013-01-09 20:19:00,
2013-01-09 15:24:00,59.7,48.3,30.42,SW,232,1.0,7.0,66,0.00,,,0.00,HR-IXPWINDi_r2_v1.2.,2013-01-09 20:24:00,
2013-01-09 15:30:00,59.6,48.2,30.41,SW,217,0.0,8.0,66,0.00,,,0.00,HR-IXPWINDi_r2_v1.2.,2013-01-09 20:30:00,
2013-01-09 15:35:00,59.6,48.2,30.41,NW,323,0.0,8.0,66,0.00,,,0.00,HR-IXPWINDi_r2_v1.2.,2013-01-09 20:35:00,
2013-01-09 15:40:00,59.5,48.5,30.41,SSE,161,1.0,10.0,67,0.00,,,0.00,HR-IXPWINDi_r2_v1.2.,2013-01-09 20:40:00,
2013-01-09 15:45:00,59.5,48.5,30.41,South,176,2.0,10.0,67,0.00,,,0.00,HR-IXPWINDi_r2_v1.2.,2013-01-09 20:45:00,
2013-01-09 15:50:00,59.5,48.9,30.41,East,89,0.0,3.0,68,0.00,,,0.00,HR-IXPWINDi_r2_v1.2.,2013-01-09 20:50:00,
2013-01-09 15:55:00,59.4,49.2,30.41,NNW,336,0.0,6.0,69,0.00,,,0.00,HR-IXPWINDi_r2_v1.2.,2013-01-09 20:55:00,
2013-01-09 16:01:00,59.3,49.1,30.41,NNE,32,1.0,7.0,69,0.00,,,0.00,HR-IXPWINDi_r2_v1.2.,2013-01-09 21:01:00,
2013-01-09 16:06:00,59.3,49.5,30.40,West,271,2.0,10.0,70,0.00,,,0.00,HR-IXPWINDi_r2_v1.2.,2013-01-09 21:06:00,
2013-01-09 16:11:00,59.2,49.0,30.40,NW,315,0.0,10.0,69,0.00,,,0.00,HR-IXPWINDi_r2_v1.2.,2013-01-09 21:11:00,
2013-01-09 16:16:00,59.1,48.9,30.40,NE,42,0.0,6.0,69,0.00,,,0.00,HR-IXPWINDi_r2_v1.2.,2013-01-09 21:16:00,
2013-01-09 16:22:00,59.0,49.2,30.40,North,349,0.0,3.0,70,0.00,,,0.00,HR-IXPWINDi_r2_v1.2.,2013-01-09 21:22:00,
2013-01-09 16:27:00,58.9,49.1,30.40,NW,317,1.0,5.0,70,0.00,,,0.00,HR-IXPWINDi_r2_v1.2.,2013-01-09 21:27:00,
2013-01-09 16:32:00,58.9,49.1,30.41,NNW,327,0.0,5.0,70,0.00,,,0.00,HR-IXPWINDi_r2_v1.2.,2013-01-09 21:32:00,
2013-01-09 16:37:00,58.7,48.9,30.40,NW,311,0.0,5.0,70,0.00,,,0.00,HR-IXPWINDi_r2_v1.2.,2013-01-09 21:37:00,
2013-01-09 16:42:00,58.5,48.7,30.40,NW,309,1.0,4.0,70,0.00,,,0.00,HR-IXPWINDi_r2_v1.2.,2013-01-09 21:42:00,
2013-01-09 16:47:00,58.3,48.5,30.40,NW,312,2.0,4.0,70,0.00,,,0.00,HR-IXPWINDi_r2_v1.2.,2013-01-09 21:47:00,
2013-01-09 16:53:00,58.2,48.8,30.40,NW,321,0.0,4.0,71,0.00,,,0.00,HR-IXPWINDi_r2_v1.2.,2013-01-09 21:53:00,
2013-01-09 16:58:00,57.9,48.5,30.40,NW,321,0.0,4.0,71,0.00,,,0.00,HR-IXPWINDi_r2_v1.2.,2013-01-09 21:58:00,
2013-01-09 17:03:00,57.7,48.7,30.40,NW,316,0.0,4.0,72,0.00,,,0.00,HR-IXPWINDi_r2_v1.2.,2013-01-09 22:03:00,
2013-01-09 17:08:00,57.5,48.5,30.40,NW,313,0.0,4.0,72,0.00,,,0.00,HR-IXPWINDi_r2_v1.2.,2013-01-09 22:08:00,
2013-01-09 17:13:00,57.4,48.4,30.40,NW,317,0.0,3.0,72,0.00,,,0.00,HR-IXPWINDi_r2_v1.2.,2013-01-09 22:13:00,
2013-01-09 17:18:00,57.1,48.5,30.40,NW,317,0.0,3.0,73,0.00,,,0.00,HR-IXPWINDi_r2_v1.2.,2013-01-09 22:18:00,
2013-01-09 17:23:00,56.8,48.2,30.40,NW,317,0.0,3.0,73,0.00,,,0.00,HR-IXPWINDi_r2_v1.2.,2013-01-09 22:23:00,
2013-01-09 17:28:00,56.5,48.3,30.40,NW,317,0.0,3.0,74,0.00,,,0.00,HR-IXPWINDi_r2_v1.2.,2013-01-09 22:28:00,
2013-01-09 17:33:00,56.2,48.0,30.40,NW,324,1.0,3.0,74,0.00,,,0.00,HR-IXPWINDi_r2_v1.2.,2013-01-09 22:33:00,
2013-01-09 17:39:00,56.0,48.1,30.40,NW,323,1.0,3.0,75,0.00,,,0.00,HR-IXPWINDi_r2_v1.2.,2013-01-09 22:39:00,
2013-01-09 17:44:00,56.0,48.1,30.41,NW,324,0.0,3.0,75,0.00,,,0.00,HR-IXPWINDi_r2_v1.2.,2013-01-09 22:44:00,
2013-01-09 17:49:00,56.0,48.5,30.41,NW,313,2.0,4.0,76,0.00,,,0.00,HR-IXPWINDi_r2_v1.2.,2013-01-09 22:49:00,
2013-01-09 17:54:00,55.9,48.4,30.41,NE,36,0.0,4.0,76,0.00,,,0.00,HR-IXPWINDi_r2_v1.2.,2013-01-09 22:54:00,
2013-01-09 18:00:00,55.7,47.8,30.41,NW,317,0.0,3.0,75,0.00,,,0.00,HR-IXPWINDi_r2_v1.2.,2013-01-09 23:00:00,
2013-01-09 18:05:00,55.5,48.0,30.41,NW,325,1.0,4.0,76,0.00,,,0.00,HR-IXPWINDi_r2_v1.2.,2013-01-09 23:05:00,
2013-01-09 18:10:00,55.3,47.8,30.41,NW,325,0.0,4.0,76,0.00,,,0.00,HR-IXPWINDi_r2_v1.2.,2013-01-09 23:10:00,
2013-01-09 18:15:00,55.0,47.9,30.41,NW,325,0.0,2.0,77,0.00,,,0.00,HR-IXPWINDi_r2_v1.2.,2013-01-09 23:15:00,
2013-01-09 18:21:00,55.0,48.5,30.41,NW,317,0.0,3.0,79,0.00,,,0.00,HR-IXPWINDi_r2_v1.2.,2013-01-09 23:21:00,
2013-01-09 18:26:00,55.0,48.2,30.41,NW,317,0.0,3.0,78,0.00,,,0.00,HR-IXPWINDi_r2_v1.2.,2013-01-09 23:26:00,
2013-01-09 18:31:00,55.0,48.5,30.42,NW,317,1.0,2.0,79,0.00,,,0.00,HR-IXPWINDi_r2_v1.2.,2013-01-09 23:31:00,
2013-01-09 18:36:00,55.3,48.8,30.42,NW,314,1.0,4.0,79,0.00,,,0.00,HR-IXPWINDi_r2_v1.2.,2013-01-09 23:36:00,
2013-01-09 18:42:00,55.5,48.7,30.42,NW,306,0.0,5.0,78,0.00,,,0.00,HR-IXPWINDi_r2_v1.2.,2013-01-09 23:42:00,
2013-01-09 18:47:00,55.6,48.8,30.42,NW,306,1.0,5.0,78,0.00,,,0.00,HR-IXPWINDi_r2_v1.2.,2013-01-09 23:47:00,
2013-01-09 18:52:00,55.7,48.9,30.42,WNW,300,3.0,4.0,78,0.00,,,0.00,HR-IXPWINDi_r2_v1.2.,2013-01-09 23:52:00,
2013-01-09 18:57:00,55.7,48.9,30.43,NW,317,1.0,4.0,78,0.00,,,0.00,HR-IXPWINDi_r2_v1.2.,2013-01-09 23:57:00,
2013-01-09 19:02:00,55.6,48.8,30.43,NW,304,0.0,5.0,78,0.00,,,0.00,HR-IXPWINDi_r2_v1.2.,2013-01-10 00:02:00,
2013-01-09 19:07:00,55.6,49.1,30.43,NW,305,3.0,6.0,79,0.00,,,0.00,HR-IXPWINDi_r2_v1.2.,2013-01-10 00:07:00,
2013-01-09 19:13:00,55.8,49.0,30.43,WNW,302,1.0,6.0,78,0.00,,,0.00,HR-IXPWINDi_r2_v1.2.,2013-01-10 00:13:00,
2013-01-09 19:18:00,55.8,49.0,30.43,NNW,343,0.0,5.0,78,0.00,,,0.00,HR-IXPWINDi_r2_v1.2.,2013-01-10 00:18:00,
2013-01-09 19:23:00,55.8,49.0,30.43,NW,317,2.0,4.0,78,0.00,,,0.00,HR-IXPWINDi_r2_v1.2.,2013-01-10 00:23:00,
2013-01-09 19:28:00,55.9,49.1,30.43,West,280,2.0,6.0,78,0.00,,,0.00,HR-IXPWINDi_r2_v1.2.,2013-01-10 00:28:00,
2013-01-09 19:33:00,56.0,49.2,30.43,NW,323,1.0,7.0,78,0.00,,,0.00,HR-IXPWINDi_r2_v1.2.,2013-01-10 00:33:00,
2013-01-09 19:39:00,56.2,49.4,30.43,NW,316,2.0,7.0,78,0.00,,,0.00,HR-IXPWINDi_r2_v1.2.,2013-01-10 00:39:00,
2013-01-09 19:44:00,56.3,49.5,30.43,NW,311,3.0,6.0,78,0.00,,,0.00,HR-IXPWINDi_r2_v1.2.,2013-01-10 00:44:00,
2013-01-09 19:49:00,56.5,49.7,30.43,NW,309,3.0,6.0,78,0.00,,,0.00,HR-IXPWINDi_r2_v1.2.,2013-01-10 00:49:00,
2013-01-09 19:54:00,56.7,49.9,30.43,WNW,294,3.0,8.0,78,0.00,,,0.00,HR-IXPWINDi_r2_v1.2.,2013-01-10 00:54:00,
2013-01-09 20:00:00,56.8,49.6,30.43,NW,306,1.0,8.0,77,0.00,,,0.00,HR-IXPWINDi_r2_v1.2.,2013-01-10 01:00:00,
2013-01-09 20:05:00,56.8,50.0,30.44,NW,315,4.0,7.0,78,0.00,,,0.00,HR-IXPWINDi_r2_v1.2.,2013-01-10 01:05:00,
2013-01-09 20:11:00,56.8,49.6,30.44,NW,307,2.0,7.0,77,0.00,,,0.00,HR-IXPWINDi_r2_v1.2.,2013-01-10 01:11:00,
2013-01-09 20:16:00,56.7,49.9,30.44,WNW,298,4.0,6.0,78,0.00,,,0.00,HR-IXPWINDi_r2_v1.2.,2013-01-10 01:16:00,
2013-01-09 20:22:00,56.6,49.8,30.44,NW,323,3.0,6.0,78,0.00,,,0.00,HR-IXPWINDi_r2_v1.2.,2013-01-10 01:22:00,
2013-01-09 20:27:00,56.2,49.4,30.44,NW,305,8.0,8.0,78,0.00,,,0.00,HR-IXPWINDi_r2_v1.2.,2013-01-10 01:27:00,
2013-01-09 20:32:00,56.5,49.7,30.44,NW,319,2.0,8.0,78,0.00,,,0.00,HR-IXPWINDi_r2_v1.2.,2013-01-10 01:32:00,
2013-01-09 20:37:00,56.9,50.1,30.44,WNW,303,3.0,8.0,78,0.00,,,0.00,HR-IXPWINDi_r2_v1.2.,2013-01-10 01:37:00,
2013-01-09 20:42:00,57.1,49.9,30.44,NW,312,3.0,8.0,77,0.00,,,0.00,HR-IXPWINDi_r2_v1.2.,2013-01-10 01:42:00,
2013-01-09 20:49:00,57.0,49.8,30.44,NW,317,5.0,8.0,77,0.00,,,0.00,HR-IXPWINDi_r2_v1.2.,2013-01-10 01:49:00,
2013-01-09 20:54:00,56.9,49.7,30.44,NNW,343,4.0,6.0,77,0.00,,,0.00,HR-IXPWINDi_r2_v1.2.,2013-01-10 01:54:00,
2013-01-09 20:59:00,56.8,50.0,30.44,WNW,299,2.0,7.0,78,0.00,,,0.00,HR-IXPWINDi_r2_v1.2.,2013-01-10 01:59:00,
2013-01-09 21:05:00,56.7,49.9,30.44,WNW,303,3.0,8.0,78,0.00,,,0.00,HR-IXPWINDi_r2_v1.2.,2013-01-10 02:05:00,
2013-01-09 21:10:00,56.4,49.6,30.44,NW,318,3.0,8.0,78,0.00,,,0.00,HR-IXPWINDi_r2_v1.2.,2013-01-10 02:10:00,
2013-01-09 21:15:00,56.1,49.6,30.43,NW,315,4.0,7.0,79,0.00,,,0.00,HR-IXPWINDi_r2_v1.2.,2013-01-10 02:15:00,
2013-01-09 21:20:00,55.8,49.3,30.44,NW,325,4.0,7.0,79,0.00,,,0.00,HR-IXPWINDi_r2_v1.2.,2013-01-10 02:20:00,
2013-01-09 21:25:00,55.3,49.2,30.44,North,351,3.0,6.0,80,0.00,,,0.00,HR-IXPWINDi_r2_v1.2.,2013-01-10 02:25:00,
2013-01-09 21:31:00,55.6,49.1,30.43,WNW,283,4.0,14.0,79,0.00,,,0.00,HR-IXPWINDi_r2_v1.2.,2013-01-10 02:31:00,
2013-01-09 21:36:00,56.1,49.3,30.43,NW,307,3.0,14.0,78,0.00,,,0.00,HR-IXPWINDi_r2_v1.2.,2013-01-10 02:36:00,
2013-01-09 21:41:00,56.2,49.0,30.43,NW,306,2.0,12.0,77,0.00,,,0.00,HR-IXPWINDi_r2_v1.2.,2013-01-10 02:41:00,
2013-01-09 21:46:00,56.4,49.2,30.43,NNW,338,2.0,12.0,77,0.00,,,0.00,HR-IXPWINDi_r2_v1.2.,2013-01-10 02:46:00,
2013-01-09 21:51:00,56.7,49.2,30.43,WSW,250,2.0,8.0,76,0.00,,,0.00,HR-IXPWINDi_r2_v1.2.,2013-01-10 02:51:00,
2013-01-09 21:56:00,56.9,49.0,30.43,NE,38,2.0,7.0,75,0.00,,,0.00,HR-IXPWINDi_r2_v1.2.,2013-01-10 02:56:00,
2013-01-09 22:01:00,56.9,49.0,30.44,North,11,0.0,6.0,75,0.00,,,0.00,HR-IXPWINDi_r2_v1.2.,2013-01-10 03:01:00,
2013-01-09 22:07:00,56.8,48.9,30.44,West,272,3.0,11.0,75,0.00,,,0.00,HR-IXPWINDi_r2_v1.2.,2013-01-10 03:07:00,
2013-01-09 22:12:00,56.9,48.6,30.45,NNW,348,1.0,11.0,74,0.00,,,0.00,HR-IXPWINDi_r2_v1.2.,2013-01-10 03:12:00,
2013-01-09 22:17:00,56.8,48.9,30.45,WNW,302,2.0,7.0,75,0.00,,,0.00,HR-IXPWINDi_r2_v1.2.,2013-01-10 03:17:00,
2013-01-09 22:22:00,56.7,48.8,30.45,NE,49,2.0,6.0,75,0.00,,,0.00,HR-IXPWINDi_r2_v1.2.,2013-01-10 03:22:00,
2013-01-09 22:27:00,56.6,48.4,30.46,NNE,21,1.0,5.0,74,0.00,,,0.00,HR-IXPWINDi_r2_v1.2.,2013-01-10 03:27:00,
2013-01-09 22:32:00,56.6,48.4,30.46,ENE,67,1.0,4.0,74,0.00,,,0.00,HR-IXPWINDi_r2_v1.2.,2013-01-10 03:32:00,
2013-01-09 22:37:00,56.5,48.6,30.46,East,84,0.0,3.0,75,0.00,,,0.00,HR-IXPWINDi_r2_v1.2.,2013-01-10 03:37:00,
2013-01-09 22:43:00,56.3,48.4,30.46,NW,319,1.0,3.0,75,0.00,,,0.00,HR-IXPWINDi_r2_v1.2.,2013-01-10 03:43:00,
2013-01-09 22:48:00,56.1,48.2,30.47,NNE,27,1.0,3.0,75,0.00,,,0.00,HR-IXPWINDi_r2_v1.2.,2013-01-10 03:48:00,
2013-01-09 22:53:00,56.1,47.9,30.46,WNW,295,2.0,4.0,74,0.00,,,0.00,HR-IXPWINDi_r2_v1.2.,2013-01-10 03:53:00,
2013-01-09 22:58:00,55.5,47.6,30.46,North,5,2.0,5.0,75,0.00,,,0.00,HR-IXPWINDi_r2_v1.2.,2013-01-10 03:58:00,
2013-01-09 23:03:00,55.3,46.7,30.46,NNE,31,3.0,8.0,73,0.00,,,0.00,HR-IXPWINDi_r2_v1.2.,2013-01-10 04:03:00,
2013-01-09 23:08:00,55.1,46.9,30.46,NNW,342,3.0,8.0,74,0.00,,,0.00,HR-IXPWINDi_r2_v1.2.,2013-01-10 04:08:00,
2013-01-09 23:14:00,55.0,45.7,30.46,ENE,69,3.0,6.0,71,0.00,,,0.00,HR-IXPWINDi_r2_v1.2.,2013-01-10 04:14:00,
2013-01-09 23:19:00,55.1,44.7,30.47,NNW,337,0.0,5.0,68,0.00,,,0.00,HR-IXPWINDi_r2_v1.2.,2013-01-10 04:19:00,
2013-01-09 23:24:00,55.3,44.5,30.47,North,360,0.0,5.0,67,0.00,,,0.00,HR-IXPWINDi_r2_v1.2.,2013-01-10 04:24:00,
2013-01-09 23:29:00,55.2,42.8,30.47,ENE,59,0.0,4.0,63,0.00,,,0.00,HR-IXPWINDi_r2_v1.2.,2013-01-10 04:29:00,
2013-01-09 23:34:00,55.1,42.3,30.47,SE,138,1.0,4.0,62,0.00,,,0.00,HR-IXPWINDi_r2_v1.2.,2013-01-10 04:34:00,
2013-01-09 23:39:00,54.8,40.3,30.47,South,180,0.0,4.0,58,0.00,,,0.00,HR-IXPWINDi_r2_v1.2.,2013-01-10 04:39:00,
2013-01-09 23:45:00,54.6,39.2,30.47,SSW,194,0.0,3.0,56,0.00,,,0.00,HR-IXPWINDi_r2_v1.2.,2013-01-10 04:45:00,
2013-01-09 23:50:00,54.5,38.2,30.47,WNW,294,0.0,3.0,54,0.00,,,0.00,HR-IXPWINDi_r2_v1.2.,2013-01-10 04:50:00,
2013-01-09 23:55:00,54.3,38.0,30.47,NW,307,1.0,4.0,54,0.00,,,0.00,HR-IXPWINDi_r2_v1.2.,2013-01-10 04:55:00,